This is the latest recevied weather packets stored in our database for station/object N0SWP-3. If no packets are shown the sender has not sent any weather packets the latest 10 day(s).
| Time | Temp. | Humidity | Pressure | Rain* | Wind** | Luminosity | Snow |
|---|---|---|---|---|---|---|---|
| 1778019843 | 8.89° C | 92% | 1012.6 hPa | 0 mm | - | - | - |
| 1778018223 | 8.33° C | 92% | 1012.6 hPa | 0.25 mm | - | - | - |
| 1778017503 | 8.33° C | 93% | 1012.5 hPa | 0.25 mm | - | - | - |
| 1778017324 | 8.33° C | 92% | 1012.3 hPa | 0.25 mm | - | - | - |
| 1778015883 | 8.33° C | 94% | 1012.7 hPa | 1.02 mm | - | - | - |
| 1778014983 | 7.78° C | 94% | 1012.7 hPa | 1.02 mm | - | - | - |
| 1778014443 | 7.78° C | 94% | 1012.7 hPa | 1.27 mm | - | - | - |
| 1778013543 | 7.78° C | 93% | 1012.4 hPa | 2.03 mm | - | - | - |
| 1778013318 | 7.78° C | 93% | 1012.5 hPa | 2.03 mm | - | - | - |
| 1778012823 | 7.78° C | 93% | 1012.7 hPa | 2.54 mm | - | - | - |
| 1778011023 | 7.22° C | 93% | 1012.1 hPa | 3.3 mm | - | - | - |
| 1778010483 | 7.22° C | 93% | 1012.7 hPa | 3.3 mm | - | - | - |
| 1778009583 | 7.22° C | 92% | 1012.8 hPa | 3.05 mm | - | - | - |
| 1778009043 | 7.22° C | 92% | 1012.9 hPa | 2.29 mm | - | - | - |
| 1778008683 | 7.22° C | 92% | 1013 hPa | 1.78 mm | - | - | - |
| 1778008638 | 7.22° C | 92% | 1013 hPa | 2.03 mm | - | - | - |
| 1778008323 | 7.78° C | 92% | 1012.8 hPa | 1.52 mm | - | - | - |
| 1778007243 | 7.78° C | 91% | 1012.7 hPa | 1.27 mm | - | - | - |
| 1778007063 | 7.78° C | 90% | 1012.4 hPa | 1.02 mm | - | - | - |
| 1778005983 | 8.33° C | 89% | 1013 hPa | 0.25 mm | - | - | - |
| 1778004543 | 8.33° C | 89% | 1012.9 hPa | 0 mm | - | - | - |
| 1778003778 | 8.33° C | 87% | 1013.2 hPa | 0 mm | - | - | - |
| 1778002923 | 8.33° C | 86% | 1013 hPa | 0 mm | - | - | - |
| 1778002564 | 8.33° C | 87% | 1013.2 hPa | 0 mm | - | - | - |
| 1778002384 | 8.89° C | 88% | 1013.1 hPa | 0 mm | - | - | - |
* Rain latest hour (hover to see other rain measurements)
** Current wind speed in m/s (hover to see current wind gust speed)